• In Belarus
  • List of Countries
  • For 7 days
  • Water Temperature
  • Satellite Maps
  • Weather Map
  • Weather Widgets
  • user-avatar
    Login

    Hourly Weather Kozly

    Today, 20 July, Friday

    Time Temperature Precipitation Wind Pressure Humidity
    00:00 +19°C° 0 mm 1 mps 733 mmHg 94%
    01:00 +17°C° 0 mm 0 mps 733 mmHg 95%
    02:00 +17°C° 0 mm 0 mps 733 mmHg 95%
    03:00 +17°C° 0 mm 0 mps 733 mmHg 95%
    04:00 +17°C° 0 mm 0 mps 733 mmHg 95%
    05:00 +18°C° 0 mm 0 mps 733 mmHg 95%
    06:00 +21°C° 0 mm 1 mps 734 mmHg 92%
    07:00 +22°C° 0 mm 1 mps 734 mmHg 89%
    08:00 +23°C° 0 mm 1 mps 734 mmHg 85%
    09:00 +24°C° 0.1 mm 2 mps 734 mmHg 81%
    10:00 +25°C° 0.1 mm 2 mps 734 mmHg 77%
    11:00 +26°C° 0.1 mm 2 mps 734 mmHg 73%
    12:00 +26°C° 0.2 mm 2 mps 734 mmHg 71%
    13:00 +27°C° 0.2 mm 2 mps 734 mmHg 69%
    14:00 +26°C° 0 mm 1 mps 735 mmHg 70%
    15:00 +26°C° 0 mm 1 mps 735 mmHg 71%
    16:00 +26°C° 0 mm 1 mps 735 mmHg 72%
    17:00 +26°C° 0 mm 1 mps 735 mmHg 73%
    18:00 +25°C° 0.2 mm 1 mps 735 mmHg 77%
    19:00 +23°C° 0.2 mm 1 mps 735 mmHg 82%
    20:00 +22°C° 0.2 mm 1 mps 735 mmHg 86%
    21:00 +19°C° 0.4 mm 0 mps 735 mmHg 87%
    22:00 +19°C° 0.4 mm 0 mps 735 mmHg 88%
    23:00 +18°C° 0.4 mm 0 mps 735 mmHg 89%

    Tomorrow, 21 July, Saturday

    Time Temperature Precipitation Wind Pressure Humidity
    00:00 +18°C° 0.1 mm 0 mps 735 mmHg 90%
    01:00 +18°C° 0.1 mm 0 mps 735 mmHg 91%
    02:00 +18°C° 0.1 mm 0 mps 735 mmHg 91%
    03:00 +20°C° 0.1 mm 1 mps 735 mmHg 91%
    04:00 +20°C° 0.1 mm 1 mps 736 mmHg 92%
    05:00 +20°C° 0.1 mm 1 mps 736 mmHg 92%
    06:00 +21°C° 0.7 mm 1 mps 736 mmHg 89%
    07:00 +21°C° 0.7 mm 2 mps 736 mmHg 86%
    08:00 +24°C° 0.7 mm 2 mps 736 mmHg 84%
    09:00 +24°C° 1.4 mm 2 mps 736 mmHg 80%
    10:00 +25°C° 1.4 mm 2 mps 736 mmHg 77%
    11:00 +26°C° 1.4 mm 2 mps 736 mmHg 74%
    12:00 +26°C° 1.6 mm 2 mps 736 mmHg 73%
    13:00 +27°C° 1.6 mm 2 mps 736 mmHg 72%
    14:00 +27°C° 1.6 mm 2 mps 736 mmHg 71%
    15:00 +27°C° 0.9 mm 2 mps 736 mmHg 73%
    16:00 +26°C° 0.9 mm 2 mps 735 mmHg 76%
    17:00 +26°C° 0.9 mm 2 mps 735 mmHg 78%
    18:00 +25°C° 0.2 mm 2 mps 735 mmHg 82%
    19:00 +23°C° 0.2 mm 2 mps 735 mmHg 86%
    20:00 +21°C° 0.2 mm 2 mps 735 mmHg 90%
    21:00 +22°C° 0.1 mm 1 mps 735 mmHg 91%
    22:00 +21°C° 0.1 mm 1 mps 735 mmHg 91%
    23:00 +21°C° 0.1 mm 1 mps 735 mmHg 92%

    Day after tomorrow, 22 July, Sunday

    Time Temperature Precipitation Wind Pressure Humidity
    00:00 +20°C° 0 mm 1 mps 735 mmHg 92%
    01:00 +20°C° 0 mm 1 mps 735 mmHg 92%
    02:00 +20°C° 0 mm 1 mps 735 mmHg 93%
    03:00 +20°C° 0 mm 1 mps 735 mmHg 93%
    04:00 +20°C° 0 mm 1 mps 735 mmHg 93%
    05:00 +20°C° 0 mm 1 mps 735 mmHg 94%
    06:00 +22°C° 0 mm 1 mps 735 mmHg 90%
    07:00 +23°C° 0 mm 2 mps 736 mmHg 86%
    08:00 +24°C° 0 mm 2 mps 736 mmHg 83%
    09:00 +25°C° 0.3 mm 2 mps 736 mmHg 80%
    10:00 +26°C° 0.3 mm 2 mps 736 mmHg 77%
    11:00 +27°C° 0.3 mm 3 mps 736 mmHg 75%
    12:00 +27°C° 0.8 mm 3 mps 736 mmHg 76%
    13:00 +26°C° 0.8 mm 3 mps 736 mmHg 77%
    14:00 +26°C° 0.8 mm 4 mps 736 mmHg 78%
    15:00 +26°C° 0.7 mm 4 mps 735 mmHg 81%
    16:00 +25°C° 0.7 mm 4 mps 735 mmHg 84%
    17:00 +23°C° 0.7 mm 4 mps 735 mmHg 87%
    18:00 +23°C° 1 mm 4 mps 736 mmHg 88%
    19:00 +22°C° 1 mm 4 mps 736 mmHg 90%
    20:00 +21°C° 1 mm 4 mps 736 mmHg 92%
    21:00 +21°C° 0.3 mm 4 mps 736 mmHg 93%
    22:00 +20°C° 0.3 mm 4 mps 736 mmHg 95%
    23:00 +20°C° 0.3 mm 4 mps 736 mmHg 96%

    23 July, Monday

    Time Temperature Precipitation Wind Pressure Humidity
    00:00 +20°C° 0.1 mm 4 mps 736 mmHg 96%
    01:00 +20°C° 0.1 mm 4 mps 736 mmHg 97%
    02:00 +20°C° 0.1 mm 4 mps 736 mmHg 97%
    03:00 +20°C° 0 mm 4 mps 736 mmHg 96%
    04:00 +20°C° 0 mm 4 mps 736 mmHg 96%
    05:00 +20°C° 0 mm 4 mps 736 mmHg 95%
    06:00 +20°C° 0.4 mm 4 mps 736 mmHg 95%
    07:00 +20°C° 0.4 mm 4 mps 736 mmHg 94%
    08:00 +21°C° 0.4 mm 4 mps 736 mmHg 93%
    09:00 +21°C° 0.2 mm 4 mps 736 mmHg 92%
    10:00 +21°C° 0.2 mm 4 mps 736 mmHg 91%
    11:00 +22°C° 0.2 mm 4 mps 736 mmHg 90%
    12:00 +22°C° 0.1 mm 4 mps 736 mmHg 89%
    13:00 +22°C° 0.1 mm 4 mps 736 mmHg 88%
    14:00 +23°C° 0.1 mm 4 mps 736 mmHg 88%
    15:00 +23°C° 0.1 mm 4 mps 736 mmHg 88%
    16:00 +23°C° 0.1 mm 4 mps 736 mmHg 88%
    17:00 +23°C° 0.1 mm 4 mps 736 mmHg 89%
    18:00 +22°C° 0.4 mm 4 mps 736 mmHg 90%
    19:00 +21°C° 0.4 mm 4 mps 736 mmHg 92%
    20:00 +21°C° 0.4 mm 4 mps 736 mmHg 94%
    21:00 +21°C° 0.3 mm 3 mps 736 mmHg 95%
    22:00 +20°C° 0.3 mm 3 mps 736 mmHg 96%
    23:00 +20°C° 0.3 mm 3 mps 736 mmHg 97%

    24 July, Tuesday

    Time Temperature Precipitation Wind Pressure Humidity
    00:00 +20°C° 0.3 mm 2 mps 736 mmHg 97%
    01:00 +19°C° 0.3 mm 2 mps 736 mmHg 97%
    02:00 +19°C° 0.3 mm 2 mps 736 mmHg 97%
    03:00 +19°C° 0.2 mm 2 mps 736 mmHg 97%
    04:00 +19°C° 0.2 mm 2 mps 737 mmHg 97%
    05:00 +19°C° 0.2 mm 2 mps 737 mmHg 97%
    06:00 +21°C° 0 mm 2 mps 737 mmHg 93%
    07:00 +23°C° 0 mm 2 mps 737 mmHg 90%
    08:00 +24°C° 0 mm 2 mps 738 mmHg 87%
    09:00 +25°C° 0.1 mm 2 mps 738 mmHg 81%
    10:00 +26°C° 0.1 mm 3 mps 738 mmHg 76%
    11:00 +27°C° 0.1 mm 3 mps 738 mmHg 71%
    12:00 +28°C° 0.4 mm 2 mps 738 mmHg 69%
    13:00 +28°C° 0.4 mm 2 mps 738 mmHg 67%
    14:00 +28°C° 0.4 mm 2 mps 738 mmHg 65%
    15:00 +28°C° 0.6 mm 2 mps 738 mmHg 69%
    16:00 +27°C° 0.6 mm 2 mps 738 mmHg 74%
    17:00 +27°C° 0.6 mm 2 mps 738 mmHg 78%
    18:00 +26°C° 0.2 mm 2 mps 738 mmHg 81%
    19:00 +24°C° 0.2 mm 2 mps 739 mmHg 85%
    20:00 +23°C° 0.2 mm 2 mps 739 mmHg 89%
    21:00 +21°C° 0.4 mm 2 mps 739 mmHg 90%
    22:00 +21°C° 0.4 mm 2 mps 739 mmHg 91%
    23:00 +20°C° 0.4 mm 2 mps 739 mmHg 91%

    25 July, Wednesday

    Time Temperature Precipitation Wind Pressure Humidity
    00:00 +20°C° 0.2 mm 2 mps 739 mmHg 92%
    01:00 +20°C° 0.2 mm 2 mps 739 mmHg 93%
    02:00 +19°C° 0.2 mm 2 mps 739 mmHg 94%
    03:00 +19°C° 0.2 mm 2 mps 739 mmHg 94%
    04:00 +19°C° 0.2 mm 2 mps 739 mmHg 94%
    05:00 +19°C° 0.2 mm 2 mps 739 mmHg 94%
    06:00 +20°C° 0.1 mm 2 mps 739 mmHg 90%
    07:00 +21°C° 0.1 mm 2 mps 739 mmHg 85%
    08:00 +24°C° 0.1 mm 2 mps 739 mmHg 81%
    09:00 +25°C° 0.4 mm 2 mps 739 mmHg 77%
    10:00 +26°C° 0.4 mm 2 mps 739 mmHg 72%
    11:00 +27°C° 0.4 mm 2 mps 739 mmHg 67%
    12:00 +28°C° 0.6 mm 2 mps 739 mmHg 66%
    13:00 +28°C° 0.6 mm 2 mps 739 mmHg 65%
    14:00 +28°C° 0.6 mm 2 mps 740 mmHg 64%
    15:00 +28°C° 0.7 mm 2 mps 740 mmHg 68%
    16:00 +28°C° 0.7 mm 2 mps 740 mmHg 72%
    17:00 +28°C° 0.7 mm 2 mps 740 mmHg 76%
    18:00 +26°C° 0.4 mm 2 mps 740 mmHg 79%
    19:00 +25°C° 0.4 mm 2 mps 740 mmHg 82%
    20:00 +23°C° 0.4 mm 2 mps 741 mmHg 85%
    21:00 +23°C° 0.2 mm 2 mps 741 mmHg 87%
    22:00 +21°C° 0.2 mm 2 mps 741 mmHg 88%
    23:00 +21°C° 0.2 mm 2 mps 741 mmHg 90%
    Show more